NUSTAR (38358 NORAD) Tracking and Keplerian Element Data

This shows tracking and keplerian element data for the satellite.

Feedback or suggestion? Click here.




ElementValue
Catalog38358
NameNUSTAR
Epoch Orbit33144
Epoch Day198.65851464
Epoch Year2018
RAAN318.4612
Inclination6.0274
Eccentricity0.0012336
Argument of Perigee233.6305
Mean Anonmoly126.2685
Mean Motion14.88006012
Decay Rate8.8E-06
L11 38358U 12031A 18198.65851464 .00000880 00000-0 18399-4 0 9990
L22 38358 6.0274 318.4612 0012336 233.6305 126.2685 14.88006012331445

Live tracking and technical data element details for NUSTAR (NORAD 38358). NUSTAR can be tracked NOW for your location showing map with azimuth and elevation plus other details from your city location.

Track the satellite on the map from your city or location and see movement details for azimuth, elevation, latitude, longitude, range, height, and movement on the map or in text.







IsCatalogInMostPopularTable: catalog: 38358, numindb: 40
Update: records affected: 1



GetName: 38358 NUSTAR

Hit Count: updated at: Thu, 19 Jul 2018 03:54:06 GMT